Regional Weather Roundup
Issued by NWS Green Bay, WI

Home | Current Version | Previous Version | Graphics & Text | Print | Product List | Glossary Off
Versions: 1 2 3 4 5 6 7 8 9 10 11 12 13 14 15 16 17 18 19 20 21 22 23 24 25 26 27 28 29 30 31 32 33 34 35 36 37 38 39 40 41 42 43 44 45 46 47 48 49 50

066
ASUS43 KGRB 191000
RWRGRB

NORTH-CENTRAL AND NORTHEAST WISCONSIN REGIONAL WEATHER ROUNDUP
NATIONAL WEATHER SERVICE GREEN BAY WI
400 AM CST SUN NOV 19 2017

WIZ005-009-010>012-018-019-191100-
NORTH CENTRAL WISCONSIN

CITY           SKY/WX    TMP DP  RH WIND       PRES   REMARKS
IRONWOOD       FLURRIES N/A N/A N/A W16       29.91R
MANITOWISH WTR NOT AVBL
ARBOR VITAE    NOT AVBL
EAGLE RIVER    LGT SNOW  18  13  81 W7        29.85S WCI   9
LAND O LAKES   NOT AVBL
RHINELANDER    LGT SNOW   1  32 100 NW9       29.88R WCI -14
PHILLIPS       CLOUDY    17  10  74 NW7       29.92S WCI   7
ANTIGO         NOT AVBL
TOMAHAWK       NOT AVBL
MERRILL        LGT SNOW  20  11  67 NW14      29.92R WCI   7
$$

WIZ013-073-191100-
NORTHEAST WISCONSIN

CITY           SKY/WX    TMP DP  RH WIND       PRES   REMARKS
IRON MOUNTAIN  CLOUDY    24  13  62 NW20G29   29.82R WCI  10
MARINETTE      FLURRIES  29  19  66 NW6       29.86R
$$

WIZ017-030-035>037-045-191100-
CENTRAL WISCONSIN

CITY           SKY/WX    TMP DP  RH WIND       PRES   REMARKS
MEDFORD        NOT AVBL
WAUSAU         CLOUDY    22  13  68 NW15      29.90R WCI   9
MOSINEE        NOT AVBL
MARSHFIELD     CLOUDY    20  12  71 NW16      29.93R WCI   6
WISC RAPIDS    CLOUDY    23  13  65 NW14      29.95R
STEVENS POINT  NOT AVBL
WAUPACA        NOT AVBL
SHAWANO        CLOUDY    28  14  56 NW12      29.89S
CLINTONVILLE   NOT AVBL
WAUTOMA        CLOUDY    25  15  66 NW10G20   29.94R
$$

WIZ038-039-048-051-191100-
FOX VALLEY

CITY           SKY/WX    TMP DP  RH WIND       PRES   REMARKS
NWS GREEN BAY  CLOUDY    28  17  63 NW21G26   29.88R
APPLETON       NOT AVBL
OSHKOSH        CLOUDY    28  16  60 NW15G22   29.89R
FOND DU LAC    CLOUDY    28  16  60 NW15      29.90S
$$

WIZ022-050-052-191100-
EAST CENTRAL WISCONSIN

CITY           SKY/WX    TMP DP  RH WIND       PRES   REMARKS
EPHRAIM        CLOUDY    28  17  63 NW10G20   29.82S
WASHINGTON ISL NOT AVBL
STURGEON BAY   FLURRIES  29  20  69 NW13      29.84S
MANITOWOC      CLOUDY    29  20  69 NW14      29.87R
SHEBOYGAN      CLOUDY    29  20  69 NW13      29.88R
$$

LMZ563-521-522-541>543-191100-
LAKESHORE

STATION/POSITION TIME  TEMP    WIND        PRES    VSBY  WAVE
                       AIR SEA DIR/SP/G                  HT/PER
                 (UTC) (F)     (DEG/KT/KT) (MB)    (MI)  (FT/S)
SHEBOYGAN LKSHOR 0900   31     290/ 14/ 18 1011.7R
NORTHPORT PIER   0949   31     320/ 21/ 25 1009.8R
N MID LAKE BUOY  0850   32 48  300/ 23/ 29 1008.8R         6/ 5
$$




USA.gov is the U.S. government's official web portal to all federal, state and local government web resources and services.